Home   Weather   East Hants   Past weeks

Flag for Canada Past Weather in East Hants, Nova Scotia, Canada — Yesterday and Last 2 Weeks

Now
25 °F

Passing clouds.


Feels Like: 14 °F
Forecast: 21 / 30 °F
Wind: 12 mph from North

Location: Halifax International Airport

Current Time: Dec 5, 2016 at 6:38:24 am

Latest Report: Dec 5, 2016 at 6:00 am


Visibility: 15 mi

Pressure: 30.03 "Hg

Humidity: 80%

Dew Point: 19 °F

Location of East HantsLocation

Past Weather in East Hants — Graph

°F

East Hants Temperature Yesterday

Maximum temperature yesterday: 34 °F (at 12:00 am)
Minimum temperature yesterday: 27 °F (at 11:00 pm)
Average temperature yesterday: 30 °F

High & Low Weather Summary for the Past Weeks

 TemperatureHumidityPressure
High54 °F (Nov 20, 11:00 am)100% (Nov 20, 5:00 am)30.38 "Hg (Nov 20, 5:00 am)
Low25 °F (Dec 5, 5:00 am)62% (Nov 21, 1:00 pm)29.25 "Hg (Dec 1, 11:00 pm)
Average36 °F90%29.83 "Hg
* Reported Nov 20 5:00 am — Dec 5 5:00 am, East Hants, Weather by CustomWeather, © 2016

Note: Actual official high and low records may vary slightly from our data, if they occured in-between our weather recording intervals... More about our weather records

Advertising

East Hants Weather History for the Previous 24 Hours

Scroll right to see more
 ConditionsComfort  
Time TempWeatherWind HumidityBarometerVisibility
5:00 am
Mon, Dec 5
25 °FPassing clouds.10 mph80%30.03 "Hg15 mi
4:00 am27 °FPassing clouds.13 mph74%30.03 "Hg15 mi
3:00 am27 °FPassing clouds.12 mph74%30.03 "Hg15 mi
2:00 am27 °FPassing clouds.16 mph74%30.03 "Hg15 mi
1:00 am27 °FPassing clouds.13 mph74%30.03 "Hg15 mi
12:00 am27 °FPassing clouds.14 mph74%30.03 "Hg15 mi
11:00 pm
Sun, Dec 4
27 °FPassing clouds.17 mph74%30.03 "Hg15 mi
10:00 pm28 °FOvercast.17 mph69%30.03 "Hg15 mi
9:00 pm28 °FOvercast.16 mph74%30.02 "Hg15 mi
8:00 pm28 °FOvercast.13 mph80%30.02 "Hg15 mi
7:00 pm28 °FOvercast.20 mph80%30.01 "Hg15 mi
6:00 pm28 °FPassing clouds.18 mph80%29.99 "Hg15 mi
5:00 pm28 °FPassing clouds.16 mph80%29.97 "Hg15 mi
4:00 pm30 °FPartly sunny.20 mph80%29.94 "Hg15 mi
3:00 pm30 °FBroken clouds.16 mph80%29.92 "Hg15 mi
2:00 pm32 °FPartly sunny.15 mph69%29.90 "Hg15 mi
1:00 pm32 °FPartly sunny.22 mph75%29.90 "Hg15 mi
12:00 pm32 °FScattered clouds.15 mph75%29.90 "Hg15 mi
11:00 am32 °FPartly sunny.18 mph80%29.90 "Hg15 mi
10:00 am32 °FPartly sunny.17 mph87%29.90 "Hg15 mi
9:00 am30 °FScattered clouds.13 mph100%29.89 "Hg15 mi
8:00 am30 °FSnow flurries. Broken clouds.15 mph93%29.87 "Hg2 mi
7:50 am30 °FSnow flurries. Broken clouds.13 mph100%29.86 "Hg4 mi
7:00 am28 °FPassing clouds.9 mph100%29.85 "Hg15 mi
6:00 am28 °FPassing clouds.10 mph100%29.83 "Hg15 mi
Weather by CustomWeather, © 2016

See weather overviewHow to use our weather pages